User: anonymous   Login
Location: Newark
(13.8117°N, 3.6025°W)
Time: 01:06:44
(UTC+00:00)
Language:

N. Korean satellite - Orbit

View from above orbital plane
View from above orbital plane
View from above satellite
View from above satellite

Ground track
Ground track

The orbit data is extracted from the following two-line orbital elements,

1 39026U 12072A   19263.05503632  .00000911  00000-0  35282-4 0  9992
2 39026  97.2143 263.2012 0039336 127.7148 232.7668 15.27990681375858
Epoch (UTC): 20 September 2019 01:19:15
Eccentricity: 0.0039336
inclination: 97.2143°
perigee height: 455 km
apogee height: 509 km
right ascension of ascending node: 263.2012°
argument of perigee: 127.7148°
revolutions per day: 15.27990681
mean anomaly at epoch: 232.7668°
orbit number at epoch: 37585

The dashed part of the orbit path shows where the satellite is in the earth's shadow,  

DLR